レナード彗星

P/2017 Y3 ( Leonard )

English version
Home page
Updated on May 26, 2021

---------------------------------------------------------------------

・ プロフィール

発見日 2017年12月26日
発見光度 19.8等
発見者 G. J. Leonard (Mount Lemmon)

・ 写真集

・ 軌道要素

Epoch 2018 Feb. 11.0 TT = JDT 2458160.5                                         
T 2018 Feb. 11.26005 TT                                 Rudenko                 
q   1.2753806            (2000.0)            P               Q                  
n   0.03181241     Peri.   67.52882     -0.70381989     +0.68048296             
a   9.8644217      Node   153.87406     -0.69045752     -0.72279555             
e   0.8707090      Incl.   27.58569     +0.16705082     -0.12045551             
P  31.0                                                                         
From 94 observations 2017 Dec. 26-2018 Sept. 17, mean residual 0".7.            

・ 光度変化

        m1 = 16.0 + 5 logΔ + 10.0 log r

---------------------------------------------------------------------

軌道要素はM.P.E.C. 2020-R04に掲載されたものです。
光度グラフはComet for Windowsで作成したものです。

---------------------------------------------------------------------

Copyright(C) Seiichi Yoshida (comet@aerith.net). All rights reserved.